| time (UTC) | temp F | wind direction | speed MPH | gust MPH | rain 1hr in | rain 24hr in | rain mn in | humidity % | barometer mb |
| 20260506090017 | 45 | 257 | 7.0 | 9.0 | 0.00 | 0.00 | 0.00 | 65 | 1015.0 |
| 20260506084518 | 45 | 259 | 6.0 | 8.0 | 0.00 | 0.00 | 0.00 | 66 | 1015.1 |
| 20260506083019 | 46 | 253 | 4.0 | 9.0 | 0.00 | 0.00 | 0.00 | 66 | 1014.8 |
| 20260506081516 | 46 | 302 | 4.0 | 9.0 | 0.00 | 0.00 | 0.00 | 67 | 1014.7 |
| 20260506073011 | 46 | 290 | 1.0 | 4.0 | 0.00 | 0.00 | 0.00 | 73 | 1014.9 |
| 20260506071512 | 45 | 271 | 1.0 | 4.0 | 0.00 | 0.00 | 0.00 | 75 | 1015.0 |
| 20260506061510 | 46 | 311 | 7.0 | 11.0 | 0.00 | 0.00 | 0.00 | 75 | 1014.7 |
| 20260506044517 | 50 | 306 | 7.0 | 15.0 | 0.00 | 0.00 | 0.00 | 63 | 1014.4 |
| 20260506043003 | 50 | 280 | 8.0 | 18.0 | 0.00 | 0.00 | 0.00 | 61 | 1014.2 |
| 20260506041506 | 50 | 241 | 7.0 | 10.0 | 0.00 | 0.00 | 0.00 | 69 | 1014.0 |
| 20260506040017 | 49 | 292 | 3.0 | 6.0 | 0.00 | 0.00 | 0.00 | 1013.8 | |
| 20260506034516 | 49 | 240 | 4.0 | 7.0 | 0.00 | 0.00 | 0.00 | 67 | 1013.6 |
| 20260506033013 | 49 | 217 | 5.0 | 10.0 | 0.00 | 0.00 | 0.00 | 65 | 1013.4 |
| 20260506031506 | 49 | 246 | 5.0 | 7.0 | 0.00 | 0.00 | 0.00 | 62 | 1013.2 |
| 20260506030009 | 50 | 241 | 4.0 | 10.0 | 0.00 | 0.00 | 0.00 | 59 | 1013.0 |
| 20260506024513 | 50 | 260 | 4.0 | 10.0 | 0.00 | 0.00 | 0.00 | 61 | 1012.9 |
| 20260506023016 | 51 | 244 | 8.0 | 13.0 | 0.00 | 0.00 | 0.00 | 58 | 1012.7 |
| 20260506021514 | 52 | 219 | 12.0 | 24.0 | 0.00 | 0.00 | 0.00 | 57 | 1012.6 |
| 20260506020008 | 53 | 217 | 7.0 | 9.0 | 0.00 | 0.00 | 0.00 | 56 | 1012.6 |
| 20260506014511 | 53 | 250 | 4.0 | 8.0 | 0.00 | 0.00 | 0.00 | 56 | 1011.8 |
| 20260506013012 | 54 | 281 | 4.0 | 9.0 | 0.00 | 0.00 | 0.00 | 54 | 1011.3 |
| 20260506011512 | 57 | 285 | 9.0 | 13.0 | 0.00 | 0.00 | 0.00 | 49 | 1011.2 |
| 20260506010017 | 58 | 290 | 7.0 | 14.0 | 0.00 | 0.00 | 0.00 | 50 | 1011.2 |
| 20260506004519 | 59 | 266 | 7.0 | 18.0 | 0.00 | 0.00 | 0.00 | 49 | 1011.2 |
| 20260506003012 | 59 | 277 | 7.0 | 14.0 | 0.00 | 0.00 | 0.00 | 50 | 1011.0 |
| 20260506001512 | 60 | 319 | 12.0 | 17.0 | 0.00 | 0.00 | 0.00 | 49 | 1010.9 |
| 20260506000012 | 60 | 248 | 7.0 | 15.0 | 0.00 | 0.00 | 0.00 | 49 | 1010.9 |
| 20260505234511 | 60 | 292 | 9.0 | 25.0 | 0.00 | 0.00 | 0.00 | 51 | 1010.9 |
| 20260505233011 | 60 | 296 | 14.0 | 22.0 | 0.00 | 0.00 | 0.00 | 52 | 1010.8 |
| 20260505231513 | 60 | 255 | 10.0 | 20.0 | 0.00 | 0.00 | 0.00 | 51 | 1010.7 |
| 20260505230028 | 60 | 290 | 17.0 | 25.0 | 0.00 | 0.00 | 0.00 | 49 | 1010.8 |
| 20260505224512 | 59 | 275 | 13.0 | 30.0 | 0.00 | 0.00 | 0.00 | 50 | 1010.9 |
| 20260505223009 | 61 | 289 | 16.0 | 23.0 | 0.00 | 0.00 | 0.00 | 45 | 1011.4 |
| 20260505221512 | 61 | 289 | 13.0 | 19.0 | 0.00 | 0.00 | 0.00 | 48 | 1010.9 |
| 20260505220014 | 63 | 301 | 11.0 | 20.0 | 0.00 | 0.00 | 0.00 | 45 | 1010.8 |
| 20260505214515 | 64 | 325 | 15.0 | 21.0 | 0.00 | 0.00 | 0.00 | 45 | 1010.7 |
| 20260505213016 | 63 | 315 | 14.0 | 28.0 | 0.00 | 0.00 | 0.00 | 45 | 1011.1 |
| 20260505211516 | 62 | 292 | 20.0 | 29.0 | 0.00 | 0.00 | 0.00 | 43 | 1011.3 |
| 20260505210014 | 63 | 272 | 18.0 | 26.0 | 0.00 | 0.00 | 0.00 | 47 | 1011.6 |
| 20260505204507 | 61 | 238 | 12.0 | 18.0 | 0.00 | 0.00 | 0.00 | 49 | 1011.7 |
| 20260505203014 | 60 | 214 | 18.0 | 24.0 | 0.00 | 0.00 | 0.00 | 52 | 1012.3 |
| 20260505201513 | 63 | 249 | 17.0 | 34.0 | 0.00 | 0.00 | 0.00 | 42 | 1011.7 |
| 20260505200012 | 65 | 219 | 16.0 | 30.0 | 0.00 | 0.00 | 0.00 | 41 | 1011.9 |
| 20260505194513 | 63 | 225 | 18.0 | 26.0 | 0.00 | 0.00 | 0.00 | 45 | 1012.0 |
| 20260505193009 | 62 | 219 | 20.0 | 25.0 | 0.00 | 0.00 | 0.00 | 45 | 1012.4 |
| 20260505191513 | 60 | 194 | 19.0 | 27.0 | 0.00 | 0.00 | 0.00 | 50 | 1012.8 |
| 20260505190015 | 60 | 225 | 19.0 | 25.0 | 0.00 | 0.00 | 0.00 | 52 | 1013.0 |
| 20260505184512 | 60 | 192 | 20.0 | 30.0 | 0.00 | 0.00 | 0.00 | 53 | 1013.1 |
| 20260505183014 | 59 | 199 | 18.0 | 27.0 | 0.00 | 0.00 | 0.00 | 57 | 1013.3 |
| 20260505181510 | 58 | 209 | 18.0 | 25.0 | 0.00 | 0.00 | 0.00 | 58 | 1013.4 |
| 20260505180011 | 55 | 213 | 15.0 | 21.0 | 0.00 | 0.00 | 0.00 | 61 | 1013.6 |
| 20260505174518 | 55 | 207 | 12.0 | 17.0 | 0.00 | 0.00 | 0.00 | 65 | 1013.8 |
| 20260505173014 | 54 | 198 | 13.0 | 17.0 | 0.00 | 0.00 | 0.00 | 71 | 1013.8 |
| 20260505171511 | 52 | 198 | 10.0 | 15.0 | 0.00 | 0.00 | 0.00 | 71 | 1013.8 |
| 20260505170012 | 52 | 194 | 10.0 | 14.0 | 0.00 | 0.00 | 0.00 | 71 | 1014.0 |
| 20260505164512 | 51 | 200 | 7.0 | 12.0 | 0.00 | 0.00 | 0.00 | 77 | 1014.0 |
| 20260505163014 | 50 | 215 | 11.0 | 16.0 | 0.00 | 0.00 | 0.00 | 79 | 1014.2 |
| 20260505161514 | 50 | 219 | 11.0 | 15.0 | 0.00 | 0.00 | 0.00 | 76 | 1014.3 |
| 20260505153028 | 52 | 220 | 10.0 | 16.0 | 0.00 | 0.00 | 0.00 | 64 | 1013.9 |
| 20260505151514 | 54 | 226 | 12.0 | 16.0 | 0.00 | 0.00 | 0.00 | 57 | 1014.0 |
| 20260505124530 | 52 | 217 | 7.0 | 10.0 | 0.00 | 0.00 | 0.00 | 54 | 1013.5 |
| 20260505123017 | 52 | 223 | 5.0 | 7.0 | 0.00 | 0.00 | 0.00 | 53 | 1013.3 |
| 20260505121518 | 53 | 234 | 4.0 | 8.0 | 0.00 | 0.00 | 0.00 | 51 | 1013.3 |
| 20260505120023 | 53 | 198 | 7.0 | 10.0 | 0.00 | 0.00 | 0.00 | 52 | 1013.5 |
| 20260505114530 | 52 | 215 | 6.0 | 8.0 | 0.00 | 0.00 | 0.00 | 52 | 1013.4 |
| 20260505113015 | 53 | 231 | 7.0 | 12.0 | 0.00 | 0.00 | 0.00 | 51 | 1013.4 |
| 20260505111514 | 53 | 240 | 8.0 | 11.0 | 0.00 | 0.00 | 0.00 | 51 | 1013.2 |
| 20260505101512 | 54 | 225 | 6.0 | 9.0 | 0.00 | 0.00 | 0.00 | 47 | 1013.3 |
| 20260505100013 | 55 | 244 | 11.0 | 14.0 | 0.00 | 0.00 | 0.00 | 43 | 1013.0 |
| 20260505094504 | 55 | 244 | 12.0 | 17.0 | 0.00 | 0.00 | 0.00 | 43 | 1013.0 |
| 20260505093012 | 55 | 230 | 11.0 | 15.0 | 0.00 | 0.00 | 0.00 | 42 | 1012.9 |
| 20260505091512 | 56 | 255 | 11.0 | 18.0 | 0.00 | 0.00 | 0.00 | 41 | 1012.9 |